When you browse on this site, cookies collect data to enhance your experience and personalize the content and advertising you see.
Visit our Privacy Policy to learn more. By continuing to use the site, you agree to this use of cookies and data.
  • In Latvia
  • List of Countries
  • For 7 days
  • Water Temperature
  • Weather Map
  • Weather Widgets
  • user-avatar
    Login

    Hourly Weather Leribe

    Today, 25 January, Saturday

    Time Temperature Precipitation Wind Pressure Humidity
    00:00 +16°C° 0 mm 3 mps 631 mmHg 83%
    01:00 +16°C° 0 mm 2 mps 631 mmHg 82%
    02:00 +16°C° 0 mm 1 mps 630 mmHg 80%
    03:00 +16°C° 0 mm 1 mps 630 mmHg 80%
    04:00 +16°C° 0 mm 1 mps 630 mmHg 79%
    05:00 +15°C° 0 mm 1 mps 630 mmHg 79%
    06:00 +18°C° 0 mm 1 mps 630 mmHg 74%
    07:00 +19°C° 0 mm 1 mps 631 mmHg 69%
    08:00 +20°C° 0 mm 1 mps 631 mmHg 64%
    09:00 +22°C° 0.2 mm 1 mps 631 mmHg 58%
    10:00 +24°C° 0.2 mm 2 mps 631 mmHg 52%
    11:00 +25°C° 0.2 mm 3 mps 632 mmHg 46%
    12:00 +26°C° 0.1 mm 3 mps 631 mmHg 44%
    13:00 +27°C° 0.1 mm 3 mps 631 mmHg 41%
    14:00 +27°C° 0.1 mm 3 mps 631 mmHg 39%
    15:00 +27°C° 0.1 mm 4 mps 631 mmHg 39%
    16:00 +27°C° 0.1 mm 4 mps 631 mmHg 39%
    17:00 +27°C° 0.1 mm 4 mps 631 mmHg 38%
    18:00 +23°C° 0.5 mm 4 mps 630 mmHg 53%
    19:00 +20°C° 0.5 mm 3 mps 630 mmHg 68%
    20:00 +18°C° 0.5 mm 3 mps 629 mmHg 82%
    21:00 +18°C° 0 mm 2 mps 629 mmHg 82%
    22:00 +17°C° 0 mm 2 mps 629 mmHg 82%
    23:00 +17°C° 0 mm 2 mps 629 mmHg 81%

    Tomorrow, 26 January, Sunday

    Time Temperature Precipitation Wind Pressure Humidity
    00:00 +17°C° 0 mm 2 mps 629 mmHg 79%
    01:00 +18°C° 0 mm 2 mps 629 mmHg 76%
    02:00 +18°C° 0 mm 2 mps 628 mmHg 74%
    03:00 +18°C° 0 mm 1 mps 628 mmHg 74%
    04:00 +18°C° 0 mm 1 mps 628 mmHg 75%
    05:00 +16°C° 0 mm 1 mps 628 mmHg 76%
    06:00 +19°C° 0 mm 1 mps 628 mmHg 70%
    07:00 +20°C° 0 mm 2 mps 629 mmHg 64%
    08:00 +21°C° 0 mm 2 mps 630 mmHg 58%
    09:00 +24°C° 0.6 mm 3 mps 630 mmHg 56%
    10:00 +25°C° 0.6 mm 4 mps 630 mmHg 54%
    11:00 +27°C° 0.6 mm 6 mps 630 mmHg 51%
    12:00 +27°C° 0.3 mm 5 mps 630 mmHg 47%
    13:00 +28°C° 0.3 mm 5 mps 630 mmHg 42%
    14:00 +29°C° 0.3 mm 5 mps 629 mmHg 37%
    15:00 +26°C° 1.1 mm 4 mps 628 mmHg 52%
    16:00 +22°C° 1.1 mm 4 mps 627 mmHg 66%
    17:00 +18°C° 1.1 mm 4 mps 626 mmHg 81%
    18:00 +18°C° 0.5 mm 3 mps 627 mmHg 81%
    19:00 +18°C° 0.5 mm 3 mps 627 mmHg 81%
    20:00 +18°C° 0.5 mm 2 mps 628 mmHg 81%
    21:00 +17°C° 0 mm 2 mps 628 mmHg 83%
    22:00 +18°C° 0 mm 1 mps 628 mmHg 85%
    23:00 +15°C° 0 mm 0 mps 628 mmHg 87%

    Day after tomorrow, 27 January, Monday

    Time Temperature Precipitation Wind Pressure Humidity
    00:00 +15°C° 0 mm 0 mps 628 mmHg 88%
    01:00 +14°C° 0 mm 0 mps 628 mmHg 89%
    02:00 +14°C° 0 mm 0 mps 628 mmHg 90%
    03:00 +14°C° 0.1 mm 0 mps 628 mmHg 90%
    04:00 +13°C° 0.1 mm 0 mps 628 mmHg 91%
    05:00 +14°C° 0.1 mm 1 mps 629 mmHg 91%
    06:00 +16°C° 0 mm 1 mps 630 mmHg 85%
    07:00 +19°C° 0 mm 1 mps 631 mmHg 79%
    08:00 +20°C° 0 mm 1 mps 632 mmHg 72%
    09:00 +21°C° 0 mm 2 mps 632 mmHg 62%
    10:00 +24°C° 0 mm 3 mps 633 mmHg 53%
    11:00 +26°C° 0 mm 3 mps 633 mmHg 43%
    12:00 +27°C° 0 mm 4 mps 633 mmHg 41%
    13:00 +27°C° 0 mm 4 mps 632 mmHg 39%
    14:00 +28°C° 0 mm 5 mps 632 mmHg 38%
    15:00 +28°C° 0 mm 4 mps 632 mmHg 37%
    16:00 +28°C° 0 mm 4 mps 632 mmHg 35%
    17:00 +28°C° 0 mm 4 mps 631 mmHg 34%
    18:00 +26°C° 0 mm 3 mps 631 mmHg 42%
    19:00 +22°C° 0 mm 3 mps 631 mmHg 50%
    20:00 +20°C° 0 mm 2 mps 630 mmHg 58%
    21:00 +18°C° 0 mm 2 mps 630 mmHg 67%
    22:00 +17°C° 0 mm 2 mps 630 mmHg 76%
    23:00 +15°C° 0 mm 2 mps 630 mmHg 85%

    28 January, Tuesday

    Time Temperature Precipitation Wind Pressure Humidity
    00:00 +15°C° 0 mm 2 mps 630 mmHg 87%
    01:00 +14°C° 0 mm 2 mps 630 mmHg 89%
    02:00 +14°C° 0 mm 1 mps 629 mmHg 92%
    03:00 +13°C° 0 mm 1 mps 629 mmHg 91%
    04:00 +13°C° 0 mm 1 mps 629 mmHg 91%
    05:00 +13°C° 0 mm 1 mps 629 mmHg 90%
    06:00 +14°C° 0 mm 1 mps 630 mmHg 85%
    07:00 +16°C° 0 mm 1 mps 630 mmHg 81%
    08:00 +17°C° 0 mm 2 mps 631 mmHg 76%
    09:00 +19°C° 0 mm 1 mps 631 mmHg 73%
    10:00 +20°C° 0 mm 1 mps 631 mmHg 70%
    11:00 +21°C° 0 mm 1 mps 631 mmHg 67%
    12:00 +23°C° 0 mm 1 mps 631 mmHg 56%
    13:00 +25°C° 0 mm 2 mps 631 mmHg 44%
    14:00 +27°C° 0 mm 3 mps 631 mmHg 33%
    15:00 +28°C° 0 mm 3 mps 631 mmHg 31%
    16:00 +28°C° 0 mm 3 mps 631 mmHg 29%
    17:00 +28°C° 0 mm 3 mps 631 mmHg 27%
    18:00 +26°C° 0 mm 3 mps 630 mmHg 33%
    19:00 +23°C° 0 mm 2 mps 629 mmHg 40%
    20:00 +19°C° 0 mm 2 mps 629 mmHg 46%
    21:00 +19°C° 0 mm 2 mps 629 mmHg 48%
    22:00 +19°C° 0 mm 1 mps 629 mmHg 50%
    23:00 +18°C° 0 mm 1 mps 629 mmHg 52%

    29 January, Wednesday

    Time Temperature Precipitation Wind Pressure Humidity
    00:00 +18°C° 0 mm 1 mps 629 mmHg 53%
    01:00 +16°C° 0 mm 1 mps 629 mmHg 53%
    02:00 +16°C° 0 mm 1 mps 628 mmHg 53%
    03:00 +15°C° 0 mm 1 mps 628 mmHg 56%
    04:00 +15°C° 0 mm 1 mps 628 mmHg 58%
    05:00 +14°C° 0 mm 1 mps 629 mmHg 60%
    06:00 +16°C° 0 mm 1 mps 630 mmHg 57%
    07:00 +20°C° 0 mm 1 mps 631 mmHg 55%
    08:00 +21°C° 0 mm 2 mps 632 mmHg 52%
    09:00 +24°C° 0 mm 2 mps 632 mmHg 46%
    10:00 +26°C° 0 mm 2 mps 632 mmHg 39%
    11:00 +28°C° 0 mm 2 mps 633 mmHg 32%
    12:00 +29°C° 0 mm 2 mps 633 mmHg 29%
    13:00 +30°C° 0 mm 2 mps 632 mmHg 26%
    14:00 +31°C° 0 mm 2 mps 632 mmHg 23%
    15:00 +31°C° 0 mm 2 mps 632 mmHg 23%
    16:00 +33°C° 0 mm 3 mps 632 mmHg 22%
    17:00 +33°C° 0 mm 3 mps 632 mmHg 22%
    18:00 +29°C° 0 mm 2 mps 631 mmHg 27%
    19:00 +26°C° 0 mm 1 mps 631 mmHg 32%
    20:00 +24°C° 0 mm 1 mps 630 mmHg 37%
    21:00 +23°C° 0 mm 1 mps 630 mmHg 42%
    22:00 +22°C° 0 mm 1 mps 630 mmHg 47%
    23:00 +20°C° 0 mm 2 mps 630 mmHg 53%

    30 January, Thursday

    Time Temperature Precipitation Wind Pressure Humidity
    00:00 +19°C° 0 mm 2 mps 630 mmHg 61%
    01:00 +18°C° 0 mm 2 mps 629 mmHg 69%
    02:00 +17°C° 0 mm 2 mps 629 mmHg 77%
    03:00 +17°C° 0 mm 2 mps 629 mmHg 78%
    04:00 +18°C° 0 mm 1 mps 629 mmHg 79%
    05:00 +18°C° 0 mm 1 mps 630 mmHg 80%
    06:00 +19°C° 0 mm 2 mps 631 mmHg 73%
    07:00 +21°C° 0 mm 2 mps 631 mmHg 65%
    08:00 +24°C° 0 mm 2 mps 632 mmHg 57%
    09:00 +26°C° 0 mm 3 mps 633 mmHg 49%
    10:00 +28°C° 0 mm 3 mps 633 mmHg 42%
    11:00 +30°C° 0 mm 4 mps 633 mmHg 34%
    12:00 +32°C° 0 mm 4 mps 633 mmHg 30%
    13:00 +33°C° 0 mm 4 mps 633 mmHg 25%
    14:00 +35°C° 0 mm 4 mps 633 mmHg 20%
    15:00 +35°C° 0 mm 4 mps 632 mmHg 20%
    16:00 +35°C° 0 mm 3 mps 632 mmHg 19%
    17:00 +34°C° 0 mm 3 mps 632 mmHg 19%
    18:00 +30°C° 0 mm 3 mps 631 mmHg 26%
    19:00 +27°C° 0 mm 3 mps 631 mmHg 33%
    20:00 +24°C° 0 mm 2 mps 630 mmHg 41%
    21:00 +22°C° 0 mm 3 mps 630 mmHg 52%
    22:00 +21°C° 0 mm 3 mps 630 mmHg 64%
    23:00 +20°C° 0 mm 3 mps 630 mmHg 76%
    Show more